Home   Weather   Prague   Past weeks

Flag for Czech Republic Past Weather in Prague, Czech Republic — Yesterday and Last 2 Weeks

52 °F


Feels Like: 47 °F
Forecast: 45 / 52 °F
Wind: 13 mph from West

Location: Prague Ruzyne Airport

Current Time: Oct 28, 2016 at 6:09:09 PM

Latest Report: Oct 28, 2016 at 5:30 PM

Visibility: N/A

Pressure: 30.42 "Hg

Humidity: 77%

Dew Point: 45 °F

Location of PragueLocation

Past Weather in Prague — Graph


Prague Temperature Yesterday

Maximum temperature yesterday: 52 °F (at 12:00 PM)
Minimum temperature yesterday: 43 °F (at 12:00 AM)
Average temperature yesterday: 47 °F

High & Low Weather Summary for the Past Weeks

High61 °F (Oct 16, 1:30 PM)100% (Oct 15, 10:30 PM)30.51 "Hg (Oct 15, 10:30 PM)
Low36 °F (Oct 23, 7:00 AM)58% (Oct 20, 3:00 PM)29.83 "Hg (Oct 15, 3:00 AM)
Average47 °F87%30.11 "Hg
* Reported Oct 13 5:00 PM — Oct 28 5:00 PM, Prague, Weather by CustomWeather, © 2016

Note: Actual official high and low records may vary slightly from our data, if they occured in-between our weather recording intervals... More about our weather records


Prague Weather History for the Previous 24 Hours

Scroll right to see more
Time TempWeatherWind HumidityBarometerVisibility
5:00 PM
Fri, Oct 28
52 °FOvercast.12 mph77%30.42 "HgN/A
4:30 PM54 °FOvercast.13 mph72%30.42 "HgN/A
4:00 PM54 °FBroken clouds.14 mph72%30.42 "HgN/A
3:30 PM54 °FPartly sunny.10 mph72%30.42 "HgN/A
3:00 PM54 °FPartly sunny.13 mph72%30.42 "HgN/A
2:30 PM54 °FPartly sunny.14 mph72%30.42 "HgN/A
2:00 PM52 °FPartly sunny.15 mph77%30.42 "HgN/A
1:30 PM54 °FPassing clouds.15 mph67%30.42 "HgN/A
1:00 PM54 °FSunny.16 mph72%30.45 "Hg10 mi
12:30 PM52 °FSunny.16 mph72%30.45 "Hg10 mi
12:00 PM52 °FPassing clouds.17 mph77%30.45 "HgN/A
11:30 AM50 °FPassing clouds.20 mph76%30.45 "HgN/A
11:00 AM50 °FScattered clouds.17 mph76%30.48 "HgN/A
10:30 AM48 °FSunny.17 mph82%30.45 "Hg10 mi
10:00 AM46 °FSunny.15 mph87%30.45 "Hg10 mi
9:30 AM46 °FClear.15 mph82%30.45 "Hg5 mi
9:00 AM45 °FClear.13 mph87%30.45 "Hg5 mi
8:30 AM43 °FClear.10 mph87%30.48 "Hg4 mi
8:00 AM43 °FClear.12 mph87%30.45 "Hg4 mi
7:30 AM43 °FClear.12 mph87%30.45 "Hg4 mi
7:00 AM43 °FClear.10 mph87%30.48 "Hg6 mi
6:30 AM43 °FClear.10 mph87%30.45 "Hg6 mi
6:00 AM43 °FClear.9 mph87%30.48 "Hg6 mi
5:30 AM43 °FClear.9 mph93%30.48 "Hg6 mi
5:00 AM43 °FClear.10 mph93%30.48 "Hg6 mi
4:30 AM43 °FClear.8 mph93%30.48 "Hg6 mi
4:00 AM43 °FClear.8 mph87%30.48 "Hg6 mi
3:30 AM45 °FClear.9 mph87%30.48 "Hg6 mi
3:00 AM45 °FClear.9 mph87%30.48 "Hg6 mi
2:30 AM45 °FClear.10 mph93%30.48 "Hg6 mi
2:00 AM45 °FClear.9 mph93%30.48 "Hg6 mi
1:30 AM46 °FPassing clouds.12 mph87%30.48 "Hg6 mi
1:00 AM46 °FPassing clouds.10 mph93%30.51 "Hg6 mi
12:30 AM48 °FPassing clouds.10 mph87%30.51 "Hg6 mi
12:00 AM48 °FPassing clouds.9 mph87%30.51 "Hg6 mi
11:30 PM
Thu, Oct 27
48 °FPassing clouds.10 mph87%30.51 "Hg6 mi
11:00 PM48 °FPassing clouds.12 mph87%30.51 "Hg6 mi
10:30 PM48 °FPassing clouds.9 mph87%30.51 "Hg6 mi
10:00 PM48 °FPassing clouds.8 mph94%30.51 "HgN/A
9:30 PM48 °FPassing clouds.9 mph87%30.51 "HgN/A
9:00 PM48 °FPassing clouds.10 mph94%30.51 "HgN/A
8:30 PM48 °FPartly cloudy.10 mph94%30.51 "HgN/A
8:00 PM48 °FPartly cloudy.9 mph94%30.51 "HgN/A
7:30 PM48 °FPassing clouds.7 mph94%30.51 "HgN/A
7:00 PM48 °FPassing clouds.7 mph87%30.48 "HgN/A
6:30 PM50 °FPassing clouds.7 mph82%30.48 "HgN/A
6:00 PM50 °FLight rain. Passing clouds.8 mph82%30.48 "HgN/A
Weather by CustomWeather, © 2016

See weather overviewHow to use our weather pages